Weather History for Oklahoma City Wiley Post, OK

Change the Weather History Date:

Thursday, November 28, 2013

  Actual Average Record
Temperature  
Mean Temperature 45 °F -  
Max Temperature 57 °F 48 °F 73 °F (1960)
Min Temperature 33 °F 29 °F 16 °F (1976)
Degree Days  
Heating Degree Days 20    
Moisture  
Dew Point 22 °F    
Average Humidity 47    
Maximum Humidity 61    
Minimum Humidity 32    
Precipitation  
Precipitation 0.00 in - - ()
Sea Level Pressure  
Sea Level Pressure 30.33 in    
Wind  
Wind Speed 11 mph (SSW)    
Max Wind Speed 15 mph    
Max Gust Speed -    
Visibility 10 miles    
Events      
Averages and records for this station are not official NWS values.
T = Trace of Precipitation, MM = Missing Value Source: NWS Daily Summary

Daily Weather History Graph

Daily Weather History Graph

Search for Another Location

Airport:

Trip Planner

Search our weather history database for the weather conditions in past years. The results will help you decide how hot, cold, wet, or windy it might be!

Date:

Astronomy

Nov. 28, 2013 Rise Set
Actual Time 7:19 AM CST 5:18 PM CST
Civil Twilight 6:51 AM CST 5:45 PM CST
Nautical Twilight 6:19 AM CST 6:17 PM CST
Astronomical Twilight 5:49 AM CST 6:48 PM CST
Moon 2:32 AM CST (11/28) 2:20 PM CST (11/28)
Length of Visible Light 10h 54m
Length of Day
9h 59m
Waning Crescent, 22% of the Moon is Illuminated
Nov 28
Waning Crescent
Dec 2
New
Dec 9
First Quarter
Dec 17
Full
Dec 25
Last Quarter

Hourly Weather History & Observations

Time (CST) Temp. Windchill Dew Point Humidity Pressure Visibility Wind Dir Wind Speed Gust Speed Precip Events Conditions
12:53 AM 34.0 °F 25.0 °F 16.0 °F 48% 30.27 in 10.0 mi SSW 12.7 mph - N/A   Clear
1:53 AM 34.0 °F 24.6 °F 16.0 °F 48% 30.27 in 10.0 mi SSW 13.8 mph - N/A   Clear
2:53 AM 34.0 °F 25.5 °F 17.1 °F 50% 30.27 in 10.0 mi SSW 11.5 mph - N/A   Clear
3:53 AM 35.1 °F 25.9 °F 17.1 °F 48% 30.27 in 10.0 mi SSW 13.8 mph - N/A   Clear
4:53 AM 35.1 °F 25.9 °F 17.1 °F 48% 30.28 in 10.0 mi South 13.8 mph - N/A   Clear
5:53 AM 35.1 °F 27.9 °F 17.1 °F 48% 30.29 in 10.0 mi SSW 9.2 mph - N/A   Clear
6:53 AM 33.1 °F 24.9 °F 18.0 °F 54% 30.32 in 10.0 mi South 10.4 mph - N/A   Clear
7:53 AM 33.1 °F 23.9 °F 19.0 °F 56% 30.33 in 10.0 mi South 12.7 mph - N/A   Clear
8:53 AM 37.0 °F 28.5 °F 21.0 °F 52% 30.34 in 10.0 mi SSW 13.8 mph - N/A   Clear
9:53 AM 44.1 °F 37.1 °F 24.1 °F 45% 30.34 in 10.0 mi SSW 15.0 mph - N/A   Clear
10:53 AM 48.9 °F - 26.1 °F 41% 30.35 in 10.0 mi SSW 13.8 mph - N/A   Clear
11:53 AM 52.0 °F - 27.0 °F 38% 30.34 in 10.0 mi SSW 11.5 mph - N/A   Clear
12:53 PM 55.9 °F - 28.0 °F 34% 30.32 in 10.0 mi SW 9.2 mph - N/A   Clear
1:53 PM 57.9 °F - 28.0 °F 32% 30.30 in 10.0 mi SSW 11.5 mph - N/A   Clear
2:53 PM 57.0 °F - 27.0 °F 32% 30.30 in 10.0 mi SSW 10.4 mph - N/A   Clear
3:53 PM 55.9 °F - 28.0 °F 34% 30.31 in 10.0 mi SSW 6.9 mph - N/A   Clear
4:53 PM 50.0 °F - 26.1 °F 39% 30.34 in 10.0 mi South 9.2 mph - N/A   Clear
5:53 PM 48.0 °F - 25.0 °F 41% 30.35 in 10.0 mi SSE 3.5 mph - N/A   Clear
6:53 PM 42.1 °F 39.2 °F 25.0 °F 51% 30.38 in 10.0 mi South 4.6 mph - N/A   Clear
7:53 PM 42.1 °F 38.4 °F 25.0 °F 51% 30.40 in 10.0 mi South 5.8 mph - N/A   Clear
8:53 PM 39.0 °F 32.8 °F 24.1 °F 55% 30.41 in 10.0 mi South 9.2 mph - N/A   Clear
9:53 PM 37.0 °F 31.6 °F 23.0 °F 57% 30.42 in 10.0 mi South 6.9 mph - N/A   Clear
10:53 PM 35.1 °F 28.6 °F 23.0 °F 61% 30.42 in 10.0 mi South 8.1 mph - N/A   Clear
11:53 PM 34.0 °F 28.8 °F 21.9 °F 61% 30.42 in 10.0 mi South 5.8 mph - N/A   Clear